DLH6AS EDDN-EDDL

Flight info

Callsign DLH6AS
Flight time 0h 46m
Altitude 24000
Route SULUS1G/28 SULUS L604 MASEK Z52 ARPEG Z850 ADEMI T854 DOMUX DOMUX1A
Aircraft A21N/M-SDE2E3FGHIRWXY/LB1

Departure

Time 2026-05-04 17:52
Airport Nuremberg Airport (EDDN)

Arrival

Time 2026-05-04 18:38
Airport Düsseldorf Airport (EDDL)
Time Latitude Longitude Altitude Speed Heading
2026-05-04 17:30 49.49542 11.07587 1021 ft 0 kts 188°
2026-05-04 17:40 49.49553 11.07589 1021 ft 2 kts 188°
2026-05-04 17:41 49.49562 11.07591 1021 ft 1 kts 189°
2026-05-04 17:41 49.49577 11.07591 1021 ft 2 kts 164°
2026-05-04 17:41 49.49591 11.07583 1020 ft 2 kts 146°
2026-05-04 17:41 49.49602 11.07567 1020 ft 2 kts 125°
2026-05-04 17:42 49.49609 11.07546 1020 ft 1 kts 104°
2026-05-04 17:42 49.49610 11.07536 1020 ft 1 kts 96°
2026-05-04 17:42 49.49610 11.07531 1020 ft 0 kts 98°
2026-05-04 17:45 49.49605 11.07582 1021 ft 11 kts 99°
2026-05-04 17:45 49.49587 11.07763 1025 ft 21 kts 98°
2026-05-04 17:45 49.49565 11.07995 1029 ft 21 kts 98°
2026-05-04 17:46 49.49544 11.08209 1029 ft 17 kts 99°
2026-05-04 17:46 49.49555 11.08335 1030 ft 9 kts 32°
2026-05-04 17:46 49.49605 11.08381 1032 ft 6 kts 52°
2026-05-04 17:46 49.49615 11.08437 1033 ft 4 kts 93°
2026-05-04 17:47 49.49612 11.08478 1034 ft 4 kts 98°
2026-05-04 17:47 49.49604 11.08559 1036 ft 10 kts 98°
2026-05-04 17:47 49.49591 11.08696 1038 ft 14 kts 97°
2026-05-04 17:47 49.49574 11.08869 1042 ft 18 kts 99°
2026-05-04 17:48 49.49553 11.09083 1045 ft 22 kts 98°
2026-05-04 17:48 49.49532 11.09282 1048 ft 12 kts 98°
2026-05-04 17:48 49.49530 11.09303 1048 ft 0 kts 98°
2026-05-04 17:48 49.49533 11.09346 1048 ft 7 kts 73°
2026-05-04 17:49 49.49574 11.09446 1048 ft 14 kts 55°
2026-05-04 17:49 49.49642 11.09556 1049 ft 12 kts 17°
2026-05-04 17:49 49.49697 11.09513 1049 ft 8 kts 298°
2026-05-04 17:49 49.49705 11.09468 1049 ft 0 kts 279°
2026-05-04 17:51 49.49706 11.09461 1049 ft 6 kts 279°
2026-05-04 17:52 49.49750 11.09007 1047 ft 80 kts 277°
2026-05-04 17:52 49.49868 11.07804 1030 ft 145 kts 279°
2026-05-04 17:52 49.50035 11.06092 1290 ft 170 kts 279°
2026-05-04 17:52 49.50222 11.04287 1846 ft 171 kts 281°
2026-05-04 17:53 49.50420 11.02437 2329 ft 181 kts 281°
2026-05-04 17:53 49.50605 11.00516 2920 ft 184 kts 281°
2026-05-04 17:53 49.50766 10.98614 3464 ft 179 kts 279°
2026-05-04 17:53 49.50929 10.96681 3744 ft 190 kts 280°
2026-05-04 17:54 49.51109 10.94592 4006 ft 204 kts 278°
2026-05-04 17:54 49.51286 10.92368 4257 ft 218 kts 278°
2026-05-04 17:54 49.51485 10.89953 4474 ft 239 kts 278°
2026-05-04 17:54 49.51711 10.87307 4815 ft 258 kts 278°
2026-05-04 17:55 49.51966 10.84500 5279 ft 272 kts 278°
2026-05-04 17:55 49.52252 10.81614 6026 ft 276 kts 278°
2026-05-04 17:55 49.52565 10.78686 6826 ft 278 kts 278°
2026-05-04 17:55 49.52891 10.75781 7649 ft 279 kts 278°
2026-05-04 17:56 49.53321 10.72892 8457 ft 283 kts 290°
2026-05-04 17:56 49.54534 10.70505 9239 ft 291 kts 323°
2026-05-04 17:56 49.56422 10.69413 10037 ft 297 kts 350°
2026-05-04 17:56 49.58484 10.69111 10634 ft 306 kts 353°
2026-05-04 17:57 49.60658 10.68814 10991 ft 324 kts 353°
2026-05-04 17:57 49.62944 10.68455 11409 ft 337 kts 352°
2026-05-04 17:57 49.65289 10.68049 12077 ft 342 kts 352°
2026-05-04 17:57 49.67659 10.67613 12782 ft 345 kts 351°
2026-05-04 17:58 49.70044 10.67160 13454 ft 348 kts 351°
2026-05-04 17:58 49.72442 10.66695 14126 ft 351 kts 351°
2026-05-04 17:58 49.74848 10.66225 14781 ft 354 kts 351°
2026-05-04 17:58 49.77304 10.65740 15435 ft 356 kts 351°
2026-05-04 17:59 49.79754 10.65255 16068 ft 359 kts 351°
2026-05-04 17:59 49.82232 10.64762 16687 ft 362 kts 351°
2026-05-04 17:59 49.87255 10.63765 17888 ft 368 kts 351°
2026-05-04 18:00 49.89804 10.63258 18477 ft 371 kts 351°
2026-05-04 18:00 49.92377 10.62746 19051 ft 374 kts 351°
2026-05-04 18:00 49.94957 10.62230 19615 ft 377 kts 351°
2026-05-04 18:00 49.97559 10.61712 20167 ft 380 kts 350°
2026-05-04 18:01 50.00169 10.61191 20687 ft 383 kts 350°
2026-05-04 18:01 50.02810 10.60661 21192 ft 386 kts 350°
2026-05-04 18:01 50.05484 10.60124 21696 ft 390 kts 350°
2026-05-04 18:02 50.10886 10.59040 22673 ft 396 kts 350°
2026-05-04 18:02 50.13626 10.58464 23156 ft 397 kts 347°
2026-05-04 18:02 50.16233 10.57187 23597 ft 394 kts 331°
2026-05-04 18:02 50.18535 10.54883 23922 ft 390 kts 316°
2026-05-04 18:03 50.20456 10.51930 23960 ft 388 kts 310°
2026-05-04 18:03 50.22277 10.48853 23963 ft 387 kts 309°
2026-05-04 18:03 50.24110 10.45799 23968 ft 387 kts 310°
2026-05-04 18:03 50.25974 10.42770 23961 ft 388 kts 311°
2026-05-04 18:04 50.27849 10.39746 23965 ft 388 kts 311°
2026-05-04 18:04 50.29717 10.36739 23967 ft 388 kts 311°
2026-05-04 18:04 50.33483 10.30655 23969 ft 388 kts 310°
2026-05-04 18:05 50.35321 10.27565 23966 ft 387 kts 308°
2026-05-04 18:05 50.37053 10.24383 23968 ft 387 kts 307°
2026-05-04 18:05 50.38851 10.21262 23970 ft 388 kts 309°
2026-05-04 18:05 50.40702 10.18228 23971 ft 387 kts 310°
2026-05-04 18:06 50.44455 10.12122 23974 ft 387 kts 309°
2026-05-04 18:06 50.46260 10.09058 23978 ft 387 kts 309°
2026-05-04 18:06 50.48089 10.05917 23978 ft 387 kts 308°
2026-05-04 18:07 50.49889 10.02827 23979 ft 387 kts 309°
2026-05-04 18:07 50.51716 9.99695 23983 ft 387 kts 309°
2026-05-04 18:07 50.53515 9.96610 23983 ft 387 kts 308°
2026-05-04 18:07 50.55284 9.93396 23979 ft 386 kts 307°
2026-05-04 18:08 50.57016 9.90133 23978 ft 386 kts 306°
2026-05-04 18:08 50.58722 9.86898 23976 ft 386 kts 306°
2026-05-04 18:08 50.60439 9.83637 23973 ft 387 kts 306°
2026-05-04 18:08 50.62177 9.80335 23972 ft 386 kts 306°
2026-05-04 18:09 50.65586 9.73845 23970 ft 387 kts 306°
2026-05-04 18:09 50.69022 9.67292 23973 ft 387 kts 306°
2026-05-04 18:10 50.70717 9.64023 23968 ft 386 kts 304°
2026-05-04 18:10 50.72165 9.60487 23971 ft 382 kts 295°
2026-05-04 18:10 50.73224 9.56698 23968 ft 378 kts 287°
2026-05-04 18:10 50.73918 9.52711 23974 ft 376 kts 281°
2026-05-04 18:11 50.74467 9.48713 23972 ft 377 kts 279°
2026-05-04 18:11 50.75001 9.44674 23972 ft 376 kts 279°
2026-05-04 18:11 50.75542 9.40619 23970 ft 377 kts 279°
2026-05-04 18:11 50.76084 9.36595 23969 ft 377 kts 279°
2026-05-04 18:12 50.76625 9.32572 23971 ft 376 kts 279°
2026-05-04 18:12 50.77165 9.28555 23972 ft 376 kts 279°
2026-05-04 18:12 50.77707 9.24525 23970 ft 376 kts 279°
2026-05-04 18:12 50.78253 9.20448 23970 ft 376 kts 279°
2026-05-04 18:13 50.78797 9.16385 23969 ft 376 kts 279°
2026-05-04 18:13 50.79337 9.12343 23969 ft 377 kts 279°
2026-05-04 18:13 50.80409 9.04281 23969 ft 377 kts 279°
2026-05-04 18:14 50.80946 9.00225 23972 ft 378 kts 279°
2026-05-04 18:14 50.81483 8.96158 23974 ft 378 kts 279°
2026-05-04 18:14 50.82093 8.92100 23972 ft 379 kts 282°
2026-05-04 18:15 50.83925 8.84281 23980 ft 383 kts 292°
2026-05-04 18:15 50.86372 8.76801 23979 ft 384 kts 295°
2026-05-04 18:15 50.87629 8.73057 23978 ft 384 kts 295°
2026-05-04 18:16 50.88879 8.69320 23975 ft 383 kts 295°
2026-05-04 18:16 50.90174 8.65689 23973 ft 385 kts 300°
2026-05-04 18:16 50.91758 8.62217 23980 ft 387 kts 304°
2026-05-04 18:17 50.95045 8.55450 23983 ft 387 kts 304°
2026-05-04 18:17 50.96657 8.52093 23981 ft 387 kts 304°
2026-05-04 18:17 50.99890 8.45264 23982 ft 388 kts 303°
2026-05-04 18:18 51.01504 8.41821 23988 ft 388 kts 303°
2026-05-04 18:18 51.03105 8.38395 23993 ft 389 kts 303°
2026-05-04 18:18 51.04724 8.34920 23985 ft 389 kts 302°
2026-05-04 18:18 51.06327 8.31467 23994 ft 388 kts 302°
2026-05-04 18:19 51.09536 8.24535 23989 ft 389 kts 302°
2026-05-04 18:19 51.11139 8.21080 23984 ft 388 kts 303°
2026-05-04 18:19 51.12759 8.17605 23992 ft 388 kts 303°
2026-05-04 18:20 51.14364 8.14158 23990 ft 388 kts 302°
2026-05-04 18:20 51.15953 8.10730 23885 ft 384 kts 302°
2026-05-04 18:20 51.17527 8.07319 23187 ft 388 kts 303°
2026-05-04 18:20 51.19136 8.03817 22238 ft 396 kts 303°
2026-05-04 18:21 51.20768 8.00263 21570 ft 396 kts 303°
2026-05-04 18:21 51.22391 7.96728 21013 ft 393 kts 303°
2026-05-04 18:21 51.23988 7.93246 20500 ft 390 kts 303°
2026-05-04 18:21 51.25587 7.89754 20005 ft 387 kts 303°
2026-05-04 18:22 51.27177 7.86269 19509 ft 384 kts 303°
2026-05-04 18:22 51.28735 7.82852 19038 ft 381 kts 303°
2026-05-04 18:22 51.30275 7.79474 18628 ft 375 kts 303°
2026-05-04 18:22 51.31812 7.76097 18162 ft 369 kts 304°
2026-05-04 18:23 51.33306 7.72814 17766 ft 362 kts 304°
2026-05-04 18:23 51.34765 7.69605 17361 ft 355 kts 304°
2026-05-04 18:23 51.36195 7.66452 16946 ft 350 kts 304°
2026-05-04 18:23 51.37622 7.63296 16535 ft 344 kts 304°
2026-05-04 18:24 51.39015 7.60215 16124 ft 339 kts 304°
2026-05-04 18:24 51.40366 7.57225 15722 ft 333 kts 304°
2026-05-04 18:24 51.41580 7.54106 15284 ft 326 kts 290°
2026-05-04 18:24 51.41960 7.50599 14918 ft 314 kts 268°
2026-05-04 18:25 51.41849 7.47145 14574 ft 309 kts 265°
2026-05-04 18:25 51.41714 7.43751 14224 ft 304 kts 265°
2026-05-04 18:25 51.41470 7.40425 13844 ft 299 kts 257°
2026-05-04 18:25 51.40963 7.37197 13476 ft 295 kts 252°
2026-05-04 18:26 51.40070 7.34319 13110 ft 292 kts 237°
2026-05-04 18:26 51.38908 7.31626 12737 ft 291 kts 234°
2026-05-04 18:26 51.37727 7.29023 12372 ft 289 kts 233°
2026-05-04 18:26 51.36552 7.26459 12000 ft 286 kts 233°
2026-05-04 18:27 51.35377 7.23891 11626 ft 284 kts 233°
2026-05-04 18:27 51.34206 7.21329 11248 ft 282 kts 233°
2026-05-04 18:27 51.33052 7.18827 10877 ft 279 kts 233°
2026-05-04 18:27 51.31907 7.16352 10499 ft 277 kts 232°
2026-05-04 18:28 51.30961 7.13707 10109 ft 276 kts 253°
2026-05-04 18:28 51.30837 7.10686 9734 ft 278 kts 278°
2026-05-04 18:28 51.31618 7.07870 9358 ft 283 kts 306°
2026-05-04 18:28 51.33138 7.05912 8981 ft 287 kts 333°
2026-05-04 18:29 51.35066 7.05284 8796 ft 282 kts
2026-05-04 18:29 51.36924 7.06119 8622 ft 274 kts 31°
2026-05-04 18:29 51.38315 7.08054 8466 ft 263 kts 49°
2026-05-04 18:29 51.39484 7.10302 8145 ft 261 kts 52°
2026-05-04 18:30 51.41701 7.14884 7446 ft 259 kts 53°
2026-05-04 18:30 51.42793 7.17183 7151 ft 258 kts 53°
2026-05-04 18:30 51.43877 7.19436 6859 ft 257 kts 49°
2026-05-04 18:31 51.45295 7.21121 6546 ft 254 kts 19°
2026-05-04 18:31 51.47000 7.21459 6268 ft 247 kts 348°
2026-05-04 18:31 51.48535 7.20404 5954 ft 239 kts 316°
2026-05-04 18:31 51.49467 7.18303 5650 ft 231 kts 285°
2026-05-04 18:32 51.49554 7.15811 5338 ft 225 kts 253°
2026-05-04 18:32 51.48785 7.13664 5014 ft 223 kts 223°
2026-05-04 18:32 51.47568 7.12156 4710 ft 223 kts 214°
2026-05-04 18:32 51.46275 7.10785 4398 ft 224 kts 213°
2026-05-04 18:33 51.45013 7.09351 4131 ft 223 kts 220°
2026-05-04 18:33 51.43899 7.07587 3852 ft 222 kts 229°
2026-05-04 18:33 51.42969 7.05633 3578 ft 222 kts 234°
2026-05-04 18:33 51.42066 7.03601 3292 ft 223 kts 234°
2026-05-04 18:34 51.41158 7.01611 3046 ft 222 kts 232°
2026-05-04 18:34 51.40239 6.99660 2993 ft 213 kts 232°
2026-05-04 18:34 51.39366 6.97839 2972 ft 200 kts 231°
2026-05-04 18:34 51.38537 6.96120 2908 ft 190 kts 231°
2026-05-04 18:35 51.37728 6.94443 2691 ft 189 kts 231°
2026-05-04 18:35 51.36929 6.92783 2442 ft 189 kts 232°
2026-05-04 18:35 51.36133 6.91126 2253 ft 184 kts 232°
2026-05-04 18:35 51.35383 6.89558 2089 ft 173 kts 232°
2026-05-04 18:36 51.34655 6.88038 1826 ft 170 kts 232°
2026-05-04 18:36 51.33956 6.86577 1571 ft 161 kts 232°
2026-05-04 18:36 51.33304 6.85212 1322 ft 147 kts 231°
2026-05-04 18:36 51.32692 6.83931 1126 ft 145 kts 231°
2026-05-04 18:37 51.32087 6.82664 939 ft 145 kts 231°
2026-05-04 18:37 51.31473 6.81378 746 ft 145 kts 231°
2026-05-04 18:37 51.30868 6.80111 558 ft 145 kts 231°
2026-05-04 18:37 51.30257 6.78816 360 ft 145 kts 230°
2026-05-04 18:38 51.29645 6.77546 170 ft 145 kts 230°
2026-05-04 18:38 51.29048 6.76301 126 ft 122 kts 229°
2026-05-04 18:38 51.28681 6.75535 123 ft 60 kts 231°
2026-05-04 18:38 51.28491 6.75127 120 ft 29 kts 239°
2026-05-04 18:39 51.28376 6.74970 120 ft 16 kts 191°
2026-05-04 18:39 51.28272 6.75004 119 ft 15 kts 155°
2026-05-04 18:39 51.28171 6.75084 117 ft 16 kts 153°
2026-05-04 18:39 51.28126 6.75120 118 ft 0 kts 153°
2026-05-04 18:40 51.28126 6.75121 118 ft 0 kts 153°
2026-05-04 18:43 51.28124 6.75122 118 ft 1 kts 153°
2026-05-04 18:43 51.28091 6.75148 118 ft 8 kts 153°
2026-05-04 18:43 51.28014 6.75210 120 ft 15 kts 153°
2026-05-04 18:43 51.27911 6.75294 122 ft 13 kts 153°
2026-05-04 18:44 51.27845 6.75349 123 ft 0 kts 153°
2026-05-04 18:44 51.27846 6.75408 123 ft 9 kts 74°
2026-05-04 18:44 51.27893 6.75531 122 ft 14 kts 52°
2026-05-04 18:45 51.27931 6.75607 122 ft 0 kts 51°
2026-05-04 18:45 51.27934 6.75613 122 ft 1 kts 51°
2026-05-04 18:45 51.27948 6.75641 121 ft 4 kts 51°
2026-05-04 18:46 51.27974 6.75693 120 ft 7 kts 52°
2026-05-04 18:46 51.27987 6.75784 118 ft 6 kts 121°
2026-05-04 18:46 51.27956 6.75834 118 ft 6 kts 107°
2026-05-04 18:46 51.27954 6.75906 118 ft 0 kts 91°
2026-05-04 18:47 51.27954 6.75917 118 ft 1 kts 91°
2026-05-04 18:47 51.27954 6.75923 118 ft 0 kts 91°
2026-05-04 18:47 51.27954 6.75924 118 ft 0 kts 91°